Big Rapids, MI

11:18 PM EDT on September 16, 2019 (GMT -0400)
Roben-Hood

Weather History for KRQB - July, 2019

Change the Weather History Date:

Friday, July 19, 2019

  Actual Average Record
Temperature  
Mean Temperature 82 °F -  
Max Temperature 92 °F 83 °F 93 °F (1977)
Min Temperature 72 °F 59 °F 42 °F (2003)
Cooling Degree Days 17    
Growing Degree Days 32 (Base 50)    
Moisture  
Dew Point 72 °F    
Average Humidity 74    
Maximum Humidity 93    
Minimum Humidity 44    
Precipitation  
Precipitation 0.00 in - - ()
Sea Level Pressure  
Sea Level Pressure 29.80 in    
Wind  
Wind Speed 6 mph (SW)    
Max Wind Speed 14 mph    
Max Gust Speed 21 mph    
Visibility 10 miles    
Events Rain    
Averages and records for this station are not official NWS values.
T = Trace of Precipitation, MM = Missing Value Source: NWS Daily Summary

Daily Weather History Graph

Daily Weather History Graph

Search for Another Location

Airport or City:

Astronomy

Jul. 19, 2019 Rise Set
Actual Time 6:17 AM EDT 9:18 PM EDT
Civil Twilight 5:43 AM EDT 9:52 PM EDT
Nautical Twilight 4:59 AM EDT 10:36 PM EDT
Astronomical Twilight 4:07 AM EDT 11:28 PM EDT
Moon 11:12 PM EDT (7/19) 8:46 AM EDT (7/19)
Length of Visible Light 16h 09m
Length of Day
15h 01m
Waning Gibbous, 93% of the Moon is Illuminated
Jul 19
Waning Gibbous
Jul 24
Last Quarter
Jul 31
New
Aug 7
First Quarter
Aug 15
Full

Hourly Weather History & Observations

Time (EDT) Temp. Heat Index Dew Point Humidity Pressure Visibility Wind Dir Wind Speed Gust Speed Precip Events Conditions
12:15 AM 73.0 °F - 70.3 °F 91% 29.80 in 10.0 mi South 5.8 mph - N/A   Scattered Clouds
12:35 AM 73.0 °F - 70.7 °F 92% 29.79 in 10.0 mi SSE 5.8 mph - N/A   Scattered Clouds
12:36 AM 73.0 °F - 70.7 °F 92% 29.79 in 10.0 mi South 5.8 mph - N/A   Scattered Clouds
12:59 AM 73.4 °F - 70.7 °F 91% 29.80 in 10.0 mi SE 4.6 mph - N/A   Scattered Clouds
1:17 AM 72.9 °F - 70.5 °F 92% 29.79 in 10.0 mi SE 6.9 mph - N/A   Clear
1:35 AM 73.0 °F - 70.7 °F 92% 29.80 in 10.0 mi SSE 4.6 mph - N/A   Mostly Cloudy
1:36 AM 73.0 °F - 70.7 °F 92% 29.80 in 10.0 mi SSE 4.6 mph - N/A   Mostly Cloudy
1:55 AM 73.6 °F - 71.2 °F 92% 29.80 in 10.0 mi SSE 3.5 mph - N/A   Overcast
2:15 AM 73.9 °F - 71.6 °F 92% 29.80 in 10.0 mi Calm Calm - N/A   Overcast
2:38 AM 73.6 °F - 71.1 °F 92% 29.80 in 10.0 mi SSE 4.6 mph - N/A   Mostly Cloudy
2:56 AM 73.4 °F - 71.1 °F 92% 29.78 in 10.0 mi SSE 4.6 mph - N/A   Scattered Clouds
3:15 AM 73.6 °F - 71.2 °F 92% 29.78 in 10.0 mi SSE 4.6 mph - N/A   Scattered Clouds
3:35 AM 73.0 °F - 70.9 °F 93% 29.77 in 10.0 mi SSE 3.5 mph - N/A   Scattered Clouds
3:36 AM 72.9 °F - 70.7 °F 93% 29.78 in 10.0 mi Calm Calm - N/A   Scattered Clouds
3:59 AM 73.4 °F - 71.2 °F 93% 29.77 in 10.0 mi Calm Calm - N/A   Clear
4:17 AM 76.3 °F - 73.9 °F 92% 29.76 in 10.0 mi SSW 3.5 mph - N/A   Clear
4:35 AM 77.4 °F - 74.5 °F 91% 29.76 in 10.0 mi SW 4.6 mph - N/A   Scattered Clouds
4:36 AM 77.4 °F - 74.5 °F 91% 29.76 in 10.0 mi WSW 3.5 mph - N/A   Scattered Clouds
4:55 AM 77.9 °F - 74.5 °F 89% 29.77 in 10.0 mi SW 4.6 mph - N/A   Scattered Clouds
5:00 AM 77.7 °F - 74.5 °F 90% 29.77 in 10.0 mi SSW 5.8 mph - N/A   Scattered Clouds
5:17 AM 77.5 °F - 74.3 °F 90% 29.77 in 10.0 mi WSW 3.5 mph - N/A   Clear
5:35 AM 78.1 °F - 74.7 °F 89% 29.77 in 10.0 mi WSW 5.8 mph 16.1 mph N/A   Clear
5:36 AM 78.1 °F - 74.8 °F 90% 29.77 in 10.0 mi WSW 5.8 mph 16.1 mph N/A   Clear
5:55 AM 78.1 °F - 75.2 °F 91% 29.77 in 10.0 mi WSW 9.2 mph - N/A   Clear
6:15 AM 78.3 °F - 75.2 °F 90% 29.78 in 10.0 mi WSW 9.2 mph - N/A   Clear
6:39 AM 78.3 °F - 75.2 °F 90% 29.76 in 10.0 mi SW 12.7 mph 18.4 mph N/A Rain Light Rain
6:57 AM 78.4 °F - 75.4 °F 90% 29.75 in 10.0 mi SW 10.4 mph 19.6 mph N/A   Scattered Clouds
7:15 AM 78.8 °F - 75.4 °F 89% 29.75 in 10.0 mi WSW 11.5 mph 19.6 mph N/A   Scattered Clouds
7:16 AM 78.8 °F - 75.4 °F 89% 29.75 in 10.0 mi WSW 10.4 mph 19.6 mph N/A   Scattered Clouds
7:35 AM 78.8 °F - 75.6 °F 90% 29.77 in 10.0 mi West 11.5 mph 18.4 mph N/A Rain Light Rain
7:55 AM 79.0 °F - 75.6 °F 89% 29.79 in 10.0 mi SW 8.1 mph - N/A   Overcast
7:59 AM 79.0 °F - 75.6 °F 89% 29.79 in 10.0 mi WSW 10.4 mph - N/A   Mostly Cloudy
8:16 AM 79.2 °F - 75.6 °F 89% 29.80 in 10.0 mi WSW 6.9 mph - N/A   Scattered Clouds
8:35 AM 79.3 °F - 75.4 °F 88% 29.81 in 10.0 mi SW 9.2 mph 17.3 mph N/A   Scattered Clouds
8:55 AM 79.7 °F - 75.4 °F 87% 29.83 in 10.0 mi SW 9.2 mph 17.3 mph N/A   Scattered Clouds
8:56 AM 79.7 °F - 75.2 °F 86% 29.83 in 10.0 mi SW 9.2 mph 17.3 mph N/A   Scattered Clouds
9:19 AM 80.1 °F 84.8 °F 74.5 °F 83% 29.81 in 10.0 mi SW 10.4 mph 16.1 mph N/A   Scattered Clouds
9:37 AM 80.6 °F 85.7 °F 74.3 °F 81% 29.80 in 10.0 mi SW 5.8 mph - N/A   Scattered Clouds
9:55 AM 80.6 °F 85.4 °F 73.6 °F 79% 29.78 in 10.0 mi SSW 3.5 mph - N/A   Scattered Clouds
10:15 AM 81.1 °F 86.4 °F 73.6 °F 78% 29.79 in 10.0 mi West 4.6 mph - N/A   Clear
10:35 AM 82.4 °F 88.2 °F 73.4 °F 74% 29.79 in 10.0 mi SSW 4.6 mph - N/A   Clear
10:58 AM 84.7 °F 92.5 °F 74.5 °F 71% 29.79 in 10.0 mi South 8.1 mph - N/A   Clear
11:16 AM 85.1 °F 92.6 °F 73.8 °F 69% 29.80 in 10.0 mi SW 10.4 mph - N/A   Clear
11:35 AM 86.2 °F 94.2 °F 73.9 °F 67% 29.81 in 10.0 mi SSW 11.5 mph 20.7 mph N/A   Clear
11:36 AM 86.0 °F 93.8 °F 73.9 °F 67% 29.81 in 10.0 mi SSW 8.1 mph 20.7 mph N/A   Clear
11:55 AM 86.4 °F 93.4 °F 73.0 °F 64% 29.82 in 10.0 mi SW 9.2 mph 20.7 mph N/A   Clear
12:19 PM 87.4 °F 93.5 °F 71.6 °F 59% 29.82 in 10.0 mi SW 10.4 mph - N/A   Clear
12:37 PM 87.4 °F 93.1 °F 70.9 °F 58% 29.82 in 10.0 mi WSW 13.8 mph 20.7 mph N/A   Scattered Clouds
12:55 PM 88.7 °F 93.5 °F 69.6 °F 53% 29.82 in 10.0 mi WSW 6.9 mph 19.6 mph N/A   Clear
12:56 PM 88.9 °F 93.4 °F 69.4 °F 52% 29.83 in 10.0 mi WSW 6.9 mph 19.6 mph N/A   Clear
1:15 PM 89.1 °F 92.1 °F 67.3 °F 48% 29.83 in 10.0 mi WSW 13.8 mph 19.6 mph N/A   Clear
1:37 PM 90.7 °F 94.1 °F 67.3 °F 46% 29.83 in 10.0 mi West 11.5 mph 18.4 mph N/A   Clear
1:56 PM 90.0 °F 92.8 °F 66.7 °F 46% 29.84 in 10.0 mi WSW 9.2 mph - N/A   Mostly Cloudy
2:15 PM 90.0 °F 93.2 °F 67.1 °F 47% 29.83 in 10.0 mi West 10.4 mph 16.1 mph N/A   Scattered Clouds
2:35 PM 90.7 °F 94.5 °F 67.6 °F 47% 29.83 in 10.0 mi West 8.1 mph 11.5 mph N/A   Clear
2:36 PM 90.9 °F 94.4 °F 67.6 °F 46% 29.83 in 10.0 mi West 8.1 mph 11.5 mph N/A   Clear
2:59 PM 91.0 °F 93.8 °F 66.6 °F 44% 29.82 in 10.0 mi West 9.2 mph 16.1 mph N/A   Clear
3:17 PM 91.4 °F 94.5 °F 66.9 °F 44% 29.82 in 10.0 mi WSW 6.9 mph - N/A   Clear
3:35 PM 91.0 °F 94.7 °F 67.5 °F 46% 29.82 in 10.0 mi WSW 8.1 mph - N/A   Clear
3:36 PM 91.0 °F 94.7 °F 67.6 °F 46% 29.82 in 10.0 mi WSW 6.9 mph - N/A   Clear
3:55 PM 92.1 °F 95.7 °F 67.5 °F 44% 29.81 in 10.0 mi WSW 10.4 mph - N/A   Clear
4:19 PM 92.3 °F 96.5 °F 68.0 °F 45% 29.81 in 10.0 mi SW 9.2 mph - N/A   Clear
4:37 PM 91.4 °F 94.9 °F 67.3 °F 45% 29.81 in 10.0 mi SW 8.1 mph 16.1 mph N/A   Scattered Clouds
4:55 PM 91.0 °F 95.2 °F 68.0 °F 47% 29.81 in 10.0 mi WSW 6.9 mph - N/A   Mostly Cloudy
4:56 PM 90.9 °F 94.8 °F 68.0 °F 47% 29.81 in 10.0 mi WSW 6.9 mph - N/A   Overcast
5:15 PM 89.8 °F 93.3 °F 67.6 °F 48% 29.82 in 10.0 mi WSW 10.4 mph - N/A   Overcast
5:16 PM 89.6 °F 93.0 °F 67.6 °F 48% 29.82 in 10.0 mi WSW 8.1 mph - N/A   Overcast
5:35 PM 88.0 °F 92.1 °F 69.1 °F 53% 29.82 in 10.0 mi WSW 4.6 mph - N/A   Overcast
5:40 PM 87.8 °F 92.2 °F 69.1 °F 54% 29.82 in 10.0 mi West 6.9 mph - N/A   Overcast
5:57 PM 87.1 °F 91.6 °F 69.8 °F 56% 29.83 in 10.0 mi WSW 8.1 mph - N/A   Overcast
6:16 PM 86.5 °F 92.5 °F 71.4 °F 61% 29.82 in 10.0 mi WSW 8.1 mph - N/A   Overcast
6:35 PM 86.4 °F 93.0 °F 72.5 °F 63% 29.81 in 10.0 mi WSW 5.8 mph - N/A   Overcast
6:55 PM 85.5 °F 91.8 °F 72.3 °F 65% 29.80 in 10.0 mi SW 6.9 mph - N/A   Overcast
6:56 PM 85.3 °F 91.5 °F 72.3 °F 65% 29.80 in 10.0 mi SW 8.1 mph - N/A   Overcast
7:19 PM 84.6 °F 90.3 °F 72.0 °F 66% 29.80 in 10.0 mi SW 4.6 mph - N/A   Overcast
7:37 PM 84.2 °F 89.9 °F 72.3 °F 67% 29.80 in 10.0 mi SW 3.5 mph - N/A   Overcast
7:55 PM 83.3 °F 89.3 °F 72.9 °F 71% 29.81 in 10.0 mi Calm Calm - N/A   Overcast
8:15 PM 83.1 °F 89.2 °F 73.4 °F 72% 29.81 in 10.0 mi Calm Calm - N/A   Overcast
8:16 PM 83.1 °F 89.5 °F 73.6 °F 73% 29.81 in 10.0 mi South 3.5 mph - N/A   Overcast
8:35 PM 82.8 °F 89.0 °F 73.8 °F 74% 29.83 in 10.0 mi Calm Calm - N/A   Overcast
8:58 PM 82.4 °F 89.0 °F 74.5 °F 77% 29.84 in 10.0 mi SSE 4.6 mph - N/A   Overcast
9:16 PM 81.9 °F 88.2 °F 74.7 °F 79% 29.84 in 10.0 mi Calm Calm - N/A   Overcast
9:35 PM 81.0 °F 86.5 °F 74.7 °F 81% 29.83 in 10.0 mi SSE 4.6 mph - N/A   Scattered Clouds
9:55 PM 80.6 °F 86.0 °F 74.8 °F 83% 29.83 in 10.0 mi Calm Calm - N/A   Clear
9:59 PM 80.6 °F 85.9 °F 74.7 °F 82% 29.83 in 10.0 mi Calm Calm - N/A   Clear
10:18 PM 79.7 °F - 74.7 °F 84% 29.81 in 10.0 mi SSE 4.6 mph - N/A   Clear
10:36 PM 80.1 °F 85.1 °F 75.2 °F 85% 29.84 in 10.0 mi Calm Calm - N/A   Clear
10:55 PM 79.3 °F - 74.7 °F 86% 29.85 in 10.0 mi Calm Calm - N/A   Scattered Clouds
11:15 PM 78.4 °F - 74.1 °F 87% 29.86 in 10.0 mi Calm Calm - N/A   Clear
11:16 PM 78.3 °F - 74.1 °F 87% 29.86 in 10.0 mi Calm Calm - N/A   Clear
11:38 PM 76.5 °F - 73.8 °F 91% 29.84 in 7.0 mi Calm Calm - N/A   Clear
11:56 PM 77.0 °F - 74.7 °F 92% 29.84 in 10.0 mi Calm Calm - N/A   Clear